Regional Weather Roundup
Issued by NWS

Home | Current Version | Previous Version | Text Only | Print | Product List | Glossary On
Versions: 1 2 3 4 5 6 7 8 9 10 11 12 13 14 15 16 17 18 19 20 21 22 23 24 25 26 27 28 29 30 31 32 33 34 35 36 37 38 39 40 41 42 43 44 45 46 47 48 49 50
000
ASUS45 KTFX 040010
RWRMT
MONTANA REGIONAL WEATHER ROUNDUP
NATIONAL WEATHER SERVICE GREAT FALLS MT
600 PM MDT MON AUG 03 2015

NOTE: "FAIR" INDICATES FEW OR NO CLOUDS BELOW 12000 FEET WITH NO
SIGNIFICANT WEATHER AND/OR OBSTRUCTIONS TO VISIBILITY.

MTZ001>007-043-040100-
WEST OF THE DIVIDE

CITY           SKY/WX    TMP DP  RH WIND       PRES   REMARKS
KALISPELL      MOCLDY    92  44  19 S10       29.72F SMOKE
MISSOULA       MOSUNNY   92  40  16 S10       29.76F
BUTTE          CLOUDY    87  36  16 S14G20    29.95S
MULLAN PASS    PTSUNNY   73  38  27 VRB6      30.04S
DEER LODGE       N/A     82  45  26 CALM      29.91R
EUREKA           N/A     93  37  14 W9        29.72S
HAMILTON         N/A     88  37  16 N3        29.82R
LIBBY            N/A     91  30  11 NW6       29.74R
PLAINS           N/A     96  41  15 W10       29.75S HX  91
$$

MTZ008-052>055-040100-
SOUTHWEST MONTANA

CITY           SKY/WX    TMP DP  RH WIND       PRES   REMARKS
BOZEMAN        PTSUNNY   84  51  31 SE12      29.88F
DILLON         CLOUDY    84  44  24 S14G21    29.93F
W YELLOWSTONE  CLOUDY    66  48  52 SW13G20   30.14S
$$

MTZ009-010-012-014-046-048-049-054-040100-
EAST SLOPES AND CENTRAL MONTANA

CITY           SKY/WX    TMP DP  RH WIND       PRES   REMARKS
CUT BANK       MOSUNNY   92  39  15 SE15G22   29.81F
GREAT FALLS    MOSUNNY   95  43  16 NE6       29.79F HX  91
MALMSTROM AFB  MOSUNNY   94  41  16 E7        29.78F
HELENA         PTSUNNY   92  41  17 E12       29.79F
CONRAD           N/A     92  48  22 E6        29.85F
$$

MTZ011-013-016-021-045-047-050-051-040100-
NORTH CENTRAL MONTANA

CITY           SKY/WX    TMP DP  RH WIND       PRES   REMARKS
HAVRE          SUNNY     91  52  26 E16       29.79F
LEWISTOWN      MOSUNNY   89  46  22 E15       29.90F
CHINOOK          N/A     84  55  37 E15       29.81F
FORT BENTON      N/A     93  41  16 E13G20    29.76F
$$

MTZ017>020-022>027-061-062-040100-
NORTHEAST MONTANA

CITY           SKY/WX    TMP DP  RH WIND       PRES   REMARKS
GLASGOW        SUNNY     87  46  24 E9        29.89F
JORDAN           N/A     91  44  19 E17       29.87F
SIDNEY         SUNNY    N/A N/A N/A NE10      29.92F
WOLF POINT     SUNNY     87  45  23 E10       29.91F
MALTA            N/A     89  52  28 E10       29.84F
POPLAR           N/A     84  45  24 E8        29.92S
$$

MTZ028>42-056>058-040100-
SOUTHCENTRAL AND SOUTHEAST MONTANA

CITY           SKY/WX    TMP DP  RH WIND       PRES   REMARKS
BAKER          SUNNY     86  48  26 E12       29.95F
BILLINGS       PTSUNNY   92  47  21 E10       29.86F
LIVINGSTON     PTSUNNY   86  44  23 E12       29.90F
MILES CITY     MOSUNNY   91  46  21 E10       29.86F
EKALAKA          N/A     84  47  27 E9        29.95
FORSYTH          N/A     90  45  20 E9G17     29.85F
LAUREL           N/A     91  52  26 NE5       29.86F
$$

REGIONAL REPORTS...DAKOTAS

CITY           SKY/WX    TMP DP  RH WIND       PRES   REMARKS
WILLISTON      SUNNY     84  41  21 E6        29.94F
MINOT          SUNNY     77  44  30 N10       29.95F
DICKINSON      SUNNY     81  49  32 NE8       29.95F
BISMARCK       SUNNY     80  48  32 N6        29.95F
GRAND FORKS    MOSUNNY   77  47  34 N8        29.90F
FARGO          SUNNY     78  45  30 NW13      29.92S
BUFFALO SD       N/A     83  51  33 SE9       29.89F
RAPID CITY     PTSUNNY   81  61  50 SE13      29.94F
$$

REGIONAL REPORTS...WYOMING/IDAHO/WASHINGTON

CITY           SKY/WX    TMP DP  RH WIND       PRES   REMARKS
GILLETTE       PTSUNNY   85  54  34 SE9       29.96S
SHERIDAN       CLOUDY    87  52  29 SE12      29.90S
BUFFALO WY     CLOUDY    82  53  36 S3        30.00S
CODY           PTSUNNY   79  50  36 N9        29.96S
YELLOWSTONE LA   N/A     67  43  41 CALM      30.22S
IDAHO FALLS    CLOUDY    72  51  47 SE10      30.04F
SALMON         CLOUDY    81  48  32 SW6       29.87R
BOISE          CLOUDY    92  47  21 N6        29.86F
SPOKANE        CLOUDY    87  43  21 SW21      29.82S
$$

REGIONAL REPORTS...ALBERTA

CITY           SKY/WX    TMP DP  RH WIND       PRES   REMARKS
EDMONTON       MOSUNNY   82  57  42 SE7       29.75F
CALGARY        CLOUDY    82  50  32 SE13      29.80F
LETHBRIDGE     PTSUNNY   91  48  22 E6        29.76F
MEDICINE HAT   CLOUDY    93  46  20 SE14G21   29.76F
CARDSTON         N/A     88  52  29 SE5         N/A
MILK RIVER       N/A     88  46  23 SE13        N/A
ONEFOUR          N/A     90  46  22 E23G30      N/A
$$

REGIONAL REPORTS...SASKATCHEWAN

CITY           SKY/WX    TMP DP  RH WIND       PRES   REMARKS
SWIFT CURRENT  PTSUNNY   77  54  44 SE17G26   29.92F
REGINA         MOSUNNY   79  50  36 NE7       29.96F
SASKATOON      PTSUNNY   79  50  36 SE10      29.96F
CYPRESS HILLS    N/A     77  48  36 SE12G17     N/A
VAL MARIE        N/A     82  48  30 SE13G18     N/A
ROCKGLEN         N/A     79  48  34 NE3         N/A
$$


USA.gov is the U.S. government's official web portal to all federal, state and local government web resources and services.